Location: ?
(35.4996°N, 139.3166°E)
Time: 11:25:26
(UTC+00:00)

ATLAS 5 CENTAUR R/B - Pass Details

Date: 18 April 2024
Orbit: 421 x 1169 km, 63.3° (Epoch: 18 May)

Event Time Altitude Azimuth Distance (km) Brightness Sun altitude
Rises 17:38:48 0° 340° (NNW) 3,056 5.4 -27.4°
Reaches altitude 10° 17:41:14 10° 352° (N) 2,258 4.8 -27.0°
Maximum altitude 17:45:50 30° 53° (NE) 1,495 4.1 -26.3°
Drops below altitude 10° 17:51:15 10° 112° (ESE) 2,706 5.2 -25.4°
Sets 17:54:25 0° 122° (ESE) 3,771 5.8 -24.9°
